| time (UTC) | temp C | wind direction | speed KPH | gust KPH | rain 1hr cm | rain 24hr cm | rain mn cm | humidity % | barometer mb |
| 20260510214033 | 22 | 39 | 0.0 | 1.6 | 0.00 | 0.00 | 0.00 | 43 | 1019.3 |
| 20260510213531 | 22 | 58 | 0.0 | 4.8 | 0.00 | 0.00 | 0.00 | 43 | 1019.3 |
| 20260510213026 | 22 | 67 | 0.0 | 1.6 | 0.00 | 0.00 | 0.00 | 45 | 1019.4 |
| 20260510212523 | 23 | 44 | 4.8 | 6.4 | 0.00 | 0.00 | 0.00 | 41 | 1019.3 |
| 20260510212020 | 23 | 43 | 1.6 | 4.8 | 0.00 | 0.00 | 0.00 | 41 | 1019.3 |
| 20260510211517 | 23 | 200 | 1.6 | 4.8 | 0.00 | 0.00 | 0.00 | 43 | 1019.4 |
| 20260510211018 | 23 | 32 | 1.6 | 1.6 | 0.00 | 0.00 | 0.00 | 41 | 1019.2 |
| 20260510210514 | 23 | 60 | 0.0 | 1.6 | 0.00 | 0.00 | 0.00 | 42 | 1019.3 |
| 20260510210009 | 23 | 46 | 0.0 | 3.2 | 0.00 | 0.00 | 0.00 | 43 | 1019.1 |
| 20260510205508 | 23 | 72 | 0.0 | 1.6 | 0.00 | 0.00 | 0.00 | 45 | 1019.2 |
| 20260510205004 | 23 | 48 | 1.6 | 3.2 | 0.00 | 0.00 | 0.00 | 42 | 1019.0 |
| 20260510204501 | 23 | 39 | 0.0 | 4.8 | 0.00 | 0.00 | 0.00 | 44 | 1019.2 |
| 20260510203957 | 23 | 82 | 0.0 | 1.6 | 0.00 | 0.00 | 0.00 | 44 | 1019.1 |
| 20260510203454 | 22 | 7 | 4.8 | 6.4 | 0.00 | 0.00 | 0.00 | 43 | 1019.1 |
| 20260510202949 | 23 | 38 | 1.6 | 3.2 | 0.00 | 0.00 | 0.00 | 41 | 1019.3 |
| 20260510202445 | 23 | 52 | 1.6 | 1.6 | 0.00 | 0.00 | 0.00 | 43 | 1019.2 |
| 20260510201942 | 23 | 74 | 0.0 | 3.2 | 0.00 | 0.00 | 0.00 | 49 | 1019.4 |
| 20260510201439 | 23 | 47 | 1.6 | 1.6 | 0.00 | 0.00 | 0.00 | 45 | 1019.3 |
| 20260510200935 | 23 | 40 | 0.0 | 0.0 | 0.00 | 0.00 | 0.00 | 47 | 1019.5 |
| 20260510200431 | 23 | 93 | 0.0 | 1.6 | 0.00 | 0.00 | 0.00 | 45 | 1019.7 |
| 20260510195924 | 22 | 41 | 0.0 | 3.2 | 0.00 | 0.00 | 0.00 | 44 | 1019.4 |
| 20260510195421 | 22 | 104 | 1.6 | 3.2 | 0.00 | 0.00 | 0.00 | 47 | 1019.5 |
| 20260510194916 | 23 | 41 | 1.6 | 6.4 | 0.00 | 0.00 | 0.00 | 44 | 1019.5 |
| 20260510194413 | 23 | 76 | 1.6 | 6.4 | 0.00 | 0.00 | 0.00 | 47 | 1019.8 |
| 20260510193909 | 23 | 104 | 0.0 | 1.6 | 0.00 | 0.00 | 0.00 | 48 | 1019.8 |
| 20260510193404 | 22 | 71 | 0.0 | 1.6 | 0.00 | 0.00 | 0.00 | 49 | 1019.5 |
| 20260510192900 | 22 | 33 | 0.0 | 1.6 | 0.00 | 0.00 | 0.00 | 50 | 1019.7 |
| 20260510192355 | 22 | 77 | 0.0 | 1.6 | 0.00 | 0.00 | 0.00 | 51 | 1019.6 |
| 20260510191850 | 22 | 45 | 1.6 | 1.6 | 0.00 | 0.00 | 0.00 | 48 | 1019.7 |
| 20260510191347 | 22 | 49 | 1.6 | 1.6 | 0.00 | 0.00 | 0.00 | 52 | 1019.4 |
| 20260510190844 | 22 | 45 | 3.2 | 4.8 | 0.00 | 0.00 | 0.00 | 46 | 1019.6 |
| 20260510190342 | 22 | 37 | 1.6 | 4.8 | 0.00 | 0.00 | 0.00 | 52 | 1019.7 |
| 20260510185838 | 22 | 41 | 3.2 | 6.4 | 0.00 | 0.00 | 0.00 | 48 | 1019.6 |
| 20260510185336 | 22 | 44 | 1.6 | 3.2 | 0.00 | 0.00 | 0.00 | 50 | 1019.7 |
| 20260510184833 | 22 | 54 | 0.0 | 3.2 | 0.00 | 0.00 | 0.00 | 52 | 1019.4 |
| 20260510184330 | 22 | 62 | 0.0 | 3.2 | 0.00 | 0.00 | 0.00 | 54 | 1019.5 |
| 20260510183830 | 23 | 41 | 1.6 | 11.3 | 0.00 | 0.00 | 0.00 | 55 | 1019.4 |
| 20260510183326 | 23 | 47 | 0.0 | 3.2 | 0.00 | 0.00 | 0.00 | 55 | 1019.2 |
| 20260510182822 | 23 | 9 | 4.8 | 6.4 | 0.00 | 0.00 | 0.00 | 52 | 1019.0 |
| 20260510182318 | 23 | 79 | 0.0 | 4.8 | 0.00 | 0.00 | 0.00 | 57 | 1019.0 |
| 20260510181814 | 23 | 320 | 0.0 | 1.6 | 0.00 | 0.00 | 0.00 | 58 | 1018.9 |
| 20260510181311 | 24 | 21 | 4.8 | 4.8 | 0.00 | 0.00 | 0.00 | 55 | 1019.0 |
| 20260510180807 | 24 | 22 | 3.2 | 9.7 | 0.00 | 0.00 | 0.00 | 57 | 1019.0 |
| 20260510180305 | 24 | 41 | 1.6 | 3.2 | 0.00 | 0.00 | 0.00 | 56 | 1019.0 |
| 20260510175801 | 23 | 49 | 0.0 | 1.6 | 0.00 | 0.00 | 0.00 | 58 | 1019.0 |
| 20260510175257 | 23 | 60 | 0.0 | 1.6 | 0.00 | 0.00 | 0.00 | 60 | 1019.1 |
| 20260510174754 | 23 | 43 | 3.2 | 4.8 | 0.00 | 0.00 | 0.00 | 57 | 1019.2 |
| 20260510174252 | 22 | 47 | 3.2 | 4.8 | 0.00 | 0.00 | 0.00 | 59 | 1019.1 |
| 20260510173748 | 23 | 341 | 1.6 | 4.8 | 0.00 | 0.00 | 0.00 | 58 | 1019.1 |
| 20260510173243 | 23 | 76 | 0.0 | 3.2 | 0.00 | 0.00 | 0.00 | 59 | 1019.3 |
| 20260510172739 | 23 | 109 | 0.0 | 3.2 | 0.00 | 0.00 | 0.00 | 57 | 1019.2 |
| 20260510172235 | 24 | 41 | 1.6 | 3.2 | 0.00 | 0.00 | 0.00 | 54 | 1019.2 |
| 20260510171732 | 24 | 31 | 0.0 | 6.4 | 0.00 | 0.00 | 0.00 | 56 | 1019.5 |
| 20260510171230 | 24 | 350 | 3.2 | 6.4 | 0.00 | 0.00 | 0.00 | 54 | 1019.3 |
| 20260510170727 | 24 | 118 | 3.2 | 4.8 | 0.00 | 0.00 | 0.00 | 55 | 1019.4 |
| 20260510170222 | 23 | 43 | 0.0 | 1.6 | 0.00 | 0.00 | 0.00 | 57 | 1019.2 |
| 20260510165718 | 25 | 62 | 1.6 | 1.6 | 0.00 | 0.00 | 0.00 | 55 | 1019.4 |
| 20260510165215 | 24 | 15 | 3.2 | 6.4 | 0.00 | 0.00 | 0.00 | 57 | 1019.3 |
| 20260510164712 | 24 | 118 | 0.0 | 6.4 | 0.00 | 0.00 | 0.00 | 57 | 1019.0 |
| 20260510164209 | 24 | 65 | 1.6 | 1.6 | 0.00 | 0.00 | 0.00 | 56 | 1019.1 |
| 20260510163704 | 23 | 29 | 0.0 | 3.2 | 0.00 | 0.00 | 0.00 | 58 | 1019.3 |
| 20260510163201 | 23 | 58 | 3.2 | 4.8 | 0.00 | 0.00 | 0.00 | 57 | 1019.3 |
| 20260510162700 | 23 | 40 | 0.0 | 3.2 | 0.00 | 0.00 | 0.00 | 61 | 1019.4 |
| 20260510162157 | 23 | 90 | 0.0 | 1.6 | 0.00 | 0.00 | 0.00 | 59 | 1019.2 |
| 20260510161653 | 23 | 123 | 0.0 | 1.6 | 0.00 | 0.00 | 0.00 | 59 | 1019.3 |
| 20260510161150 | 23 | 80 | 0.0 | 1.6 | 0.00 | 0.00 | 0.00 | 61 | 1019.3 |
| 20260510160646 | 23 | 304 | 1.6 | 3.2 | 0.00 | 0.00 | 0.00 | 60 | 1019.0 |
| 20260510160142 | 22 | 313 | 0.0 | 0.0 | 0.00 | 0.00 | 0.00 | 62 | 1019.2 |
| 20260510155638 | 22 | 5 | 3.2 | 6.4 | 0.00 | 0.00 | 0.00 | 59 | 1019.0 |
| 20260510155134 | 22 | 77 | 0.0 | 1.6 | 0.00 | 0.00 | 0.00 | 60 | 1019.1 |
| 20260510154630 | 22 | 88 | 0.0 | 1.6 | 0.00 | 0.00 | 0.00 | 61 | 1018.9 |
| 20260510154125 | 22 | 47 | 1.6 | 1.6 | 0.00 | 0.00 | 0.00 | 60 | 1018.9 |
| 20260510153621 | 22 | 97 | 0.0 | 1.6 | 0.00 | 0.00 | 0.00 | 63 | 1018.7 |
| 20260510153118 | 22 | 37 | 3.2 | 3.2 | 0.00 | 0.00 | 0.00 | 61 | 1018.5 |
| 20260510152614 | 22 | 44 | 1.6 | 1.6 | 0.00 | 0.00 | 0.00 | 61 | 1018.6 |
| 20260510152110 | 22 | 0 | 6.4 | 12.9 | 0.00 | 0.00 | 0.00 | 60 | 1018.6 |
| 20260510151607 | 22 | 44 | 0.0 | 1.6 | 0.00 | 0.00 | 0.00 | 61 | 1018.6 |
| 20260510151106 | 22 | 37 | 3.2 | 3.2 | 0.00 | 0.00 | 0.00 | 62 | 1018.4 |
| 20260510150606 | 21 | 21 | 1.6 | 1.6 | 0.00 | 0.00 | 0.00 | 60 | 1018.4 |
| 20260510145558 | 21 | 54 | 0.0 | 1.6 | 0.00 | 0.00 | 0.00 | 64 | 1018.4 |
| 20260510145055 | 21 | 8 | 3.2 | 4.8 | 0.00 | 0.00 | 0.00 | 63 | 1018.5 |
| 20260510144551 | 21 | 277 | 3.2 | 3.2 | 0.00 | 0.00 | 0.00 | 62 | 1018.8 |
| 20260510144047 | 21 | 22 | 1.6 | 1.6 | 0.00 | 0.00 | 0.00 | 62 | 1018.6 |
| 20260510143543 | 21 | 31 | 4.8 | 4.8 | 0.00 | 0.00 | 0.00 | 62 | 1018.5 |
| 20260510143039 | 21 | 359 | 1.6 | 1.6 | 0.00 | 0.00 | 0.00 | 62 | 1018.5 |
| 20260510142536 | 20 | 92 | 0.0 | 0.0 | 0.00 | 0.00 | 0.00 | 65 | 1018.6 |
| 20260510142033 | 20 | 307 | 3.2 | 6.4 | 0.00 | 0.00 | 0.00 | 63 | 1018.4 |
| 20260510141530 | 20 | 44 | 0.0 | 1.6 | 0.00 | 0.00 | 0.00 | 64 | 1018.5 |
| 20260510141027 | 20 | 249 | 3.2 | 6.4 | 0.00 | 0.00 | 0.00 | 62 | 1018.2 |
| 20260510140523 | 20 | 36 | 1.6 | 3.2 | 0.00 | 0.00 | 0.00 | 63 | 1018.4 |
| 20260510140023 | 20 | 4 | 3.2 | 3.2 | 0.00 | 0.00 | 0.00 | 63 | 1018.2 |
| 20260510135519 | 19 | 10 | 0.0 | 3.2 | 0.00 | 0.00 | 0.00 | 64 | 1018.2 |
| 20260510135016 | 19 | 14 | 1.6 | 1.6 | 0.00 | 0.00 | 0.00 | 64 | 1018.0 |
| 20260510134513 | 18 | 265 | 1.6 | 1.6 | 0.00 | 0.00 | 0.00 | 65 | 1017.8 |
| 20260510134009 | 18 | 3 | 0.0 | 1.6 | 0.00 | 0.00 | 0.00 | 66 | 1018.0 |
| 20260510133505 | 18 | 293 | 0.0 | 0.0 | 0.00 | 0.00 | 0.00 | 67 | 1017.9 |
| 20260510133001 | 17 | 290 | 0.0 | 1.6 | 0.00 | 0.00 | 0.00 | 68 | 1018.2 |
| 20260510132458 | 17 | 14 | 0.0 | 0.0 | 0.00 | 0.00 | 0.00 | 68 | 1018.1 |
| 20260510131955 | 17 | 28 | 1.6 | 1.6 | 0.00 | 0.00 | 0.00 | 68 | 1017.9 |
| 20260510131453 | 17 | 2 | 3.2 | 4.8 | 0.00 | 0.00 | 0.00 | 67 | 1018.0 |
| 20260510130950 | 17 | 348 | 1.6 | 1.6 | 0.00 | 0.00 | 0.00 | 67 | 1018.0 |
| 20260510130446 | 17 | 1 | 1.6 | 6.4 | 0.00 | 0.00 | 0.00 | 67 | 1018.0 |
| 20260510125943 | 17 | 358 | 1.6 | 3.2 | 0.00 | 0.00 | 0.00 | 67 | 1017.7 |
| 20260510125440 | 17 | 149 | 0.0 | 0.0 | 0.00 | 0.00 | 0.00 | 68 | 1017.6 |
| 20260510124936 | 17 | 149 | 0.0 | 0.0 | 0.00 | 0.00 | 0.00 | 68 | 1017.4 |
| 20260510124433 | 17 | 149 | 0.0 | 0.0 | 0.00 | 0.00 | 0.00 | 69 | 1017.3 |
| 20260510123930 | 17 | 148 | 0.0 | 1.6 | 0.00 | 0.00 | 0.00 | 69 | 1017.3 |
| 20260510123425 | 16 | 148 | 0.0 | 0.0 | 0.00 | 0.00 | 0.00 | 70 | 1017.4 |
| 20260510122922 | 16 | 148 | 0.0 | 0.0 | 0.00 | 0.00 | 0.00 | 69 | 1017.3 |
| 20260510122417 | 16 | 148 | 0.0 | 0.0 | 0.00 | 0.00 | 0.00 | 69 | 1017.3 |
| 20260510121913 | 16 | 148 | 1.6 | 1.6 | 0.00 | 0.00 | 0.00 | 68 | 1017.2 |
| 20260510121411 | 16 | 148 | 0.0 | 0.0 | 0.00 | 0.00 | 0.00 | 68 | 1017.0 |
| 20260510120908 | 16 | 148 | 0.0 | 0.0 | 0.00 | 0.00 | 0.00 | 69 | 1017.1 |
| 20260510120405 | 16 | 148 | 0.0 | 1.6 | 0.00 | 0.00 | 0.00 | 70 | 1016.9 |
| 20260510115901 | 15 | 148 | 0.0 | 0.0 | 0.00 | 0.00 | 0.00 | 69 | 1016.6 |
| 20260510115358 | 15 | 148 | 1.6 | 1.6 | 0.00 | 0.00 | 0.00 | 70 | 1016.6 |
| 20260510114854 | 15 | 148 | 1.6 | 1.6 | 0.00 | 0.00 | 0.00 | 71 | 1016.3 |
| 20260510114351 | 15 | 148 | 0.0 | 0.0 | 0.00 | 0.00 | 0.00 | 71 | 1016.5 |
| 20260510113851 | 15 | 148 | 0.0 | 0.0 | 0.00 | 0.00 | 0.00 | 71 | 1016.3 |
| 20260510113347 | 15 | 148 | 0.0 | 0.0 | 0.00 | 0.00 | 0.00 | 72 | 1016.2 |
| 20260510112844 | 15 | 148 | 0.0 | 0.0 | 0.00 | 0.00 | 0.00 | 72 | 1016.1 |
| 20260510112342 | 15 | 152 | 0.0 | 0.0 | 0.00 | 0.00 | 0.00 | 71 | 1016.1 |
| 20260510111837 | 15 | 152 | 0.0 | 0.0 | 0.00 | 0.00 | 0.00 | 70 | 1016.1 |
| 20260510111334 | 15 | 105 | 0.0 | 0.0 | 0.00 | 0.00 | 0.00 | 70 | 1016.0 |
| 20260510110834 | 15 | 105 | 0.0 | 0.0 | 0.00 | 0.00 | 0.00 | 69 | 1016.1 |
| 20260510110332 | 15 | 105 | 0.0 | 0.0 | 0.00 | 0.00 | 0.00 | 69 | 1015.7 |
| 20260510105827 | 15 | 105 | 0.0 | 0.0 | 0.00 | 0.00 | 0.00 | 69 | 1015.8 |
| 20260510105327 | 15 | 105 | 0.0 | 0.0 | 0.00 | 0.00 | 0.00 | 69 | 1015.8 |
| 20260510104824 | 15 | 105 | 0.0 | 0.0 | 0.00 | 0.00 | 0.00 | 69 | 1015.8 |
| 20260510104321 | 15 | 105 | 0.0 | 0.0 | 0.00 | 0.00 | 0.00 | 69 | 1015.5 |
| 20260510103817 | 15 | 105 | 0.0 | 0.0 | 0.00 | 0.00 | 0.00 | 69 | 1015.3 |
| 20260510103314 | 15 | 105 | 0.0 | 0.0 | 0.00 | 0.00 | 0.00 | 70 | 1015.3 |
| 20260510102809 | 15 | 105 | 0.0 | 0.0 | 0.00 | 0.00 | 0.00 | 70 | 1015.5 |
| 20260510102306 | 15 | 105 | 0.0 | 0.0 | 0.00 | 0.00 | 0.00 | 69 | 1015.5 |
| 20260510101802 | 15 | 105 | 0.0 | 1.6 | 0.00 | 0.00 | 0.00 | 71 | 1015.8 |
| 20260510101301 | 15 | 105 | 0.0 | 0.0 | 0.00 | 0.00 | 0.00 | 68 | 1015.7 |
| 20260510100756 | 15 | 105 | 0.0 | 0.0 | 0.00 | 0.00 | 0.00 | 69 | 1015.8 |
| 20260510100255 | 15 | 105 | 0.0 | 0.0 | 0.00 | 0.00 | 0.00 | 69 | 1015.7 |
| 20260510095750 | 15 | 105 | 0.0 | 0.0 | 0.00 | 0.00 | 0.00 | 69 | 1015.5 |
| 20260510095245 | 15 | 105 | 0.0 | 0.0 | 0.00 | 0.00 | 0.00 | 70 | 1015.5 |
| 20260510094744 | 15 | 104 | 0.0 | 1.6 | 0.00 | 0.00 | 0.00 | 68 | 1015.7 |
| 20260510094240 | 15 | 90 | 0.0 | 0.0 | 0.00 | 0.00 | 0.00 | 68 | 1015.7 |
| 20260510093736 | 15 | 90 | 0.0 | 0.0 | 0.00 | 0.00 | 0.00 | 68 | 1015.7 |
| 20260510093234 | 15 | 90 | 0.0 | 0.0 | 0.00 | 0.00 | 0.00 | 66 | 1015.5 |
| 20260510092730 | 15 | 84 | 0.0 | 0.0 | 0.00 | 0.00 | 0.00 | 67 | 1015.4 |
| 20260510092226 | 15 | 84 | 0.0 | 0.0 | 0.00 | 0.00 | 0.00 | 66 | 1015.5 |
| 20260510091721 | 16 | 84 | 0.0 | 0.0 | 0.00 | 0.00 | 0.00 | 65 | 1015.3 |
| 20260510091218 | 16 | 84 | 0.0 | 0.0 | 0.00 | 0.00 | 0.00 | 64 | 1015.3 |
| 20260510090714 | 16 | 84 | 0.0 | 0.0 | 0.00 | 0.00 | 0.00 | 63 | 1015.5 |
| 20260510090212 | 16 | 84 | 0.0 | 0.0 | 0.00 | 0.00 | 0.00 | 62 | 1015.4 |
| 20260510085706 | 16 | 83 | 0.0 | 0.0 | 0.00 | 0.00 | 0.00 | 61 | 1015.4 |
| 20260510085202 | 17 | 83 | 0.0 | 0.0 | 0.00 | 0.00 | 0.00 | 59 | 1015.5 |
| 20260510084658 | 17 | 84 | 0.0 | 0.0 | 0.00 | 0.00 | 0.00 | 58 | 1015.4 |
| 20260510084155 | 17 | 342 | 0.0 | 6.4 | 0.00 | 0.00 | 0.00 | 57 | 1015.7 |
| 20260510083652 | 17 | 5 | 3.2 | 3.2 | 0.00 | 0.00 | 0.00 | 55 | 1015.7 |
| 20260510083149 | 18 | 351 | 0.0 | 3.2 | 0.00 | 0.00 | 0.00 | 55 | 1015.7 |
| 20260510082645 | 16 | 300 | 3.2 | 9.7 | 0.00 | 0.00 | 0.00 | 57 | 1015.2 |
| 20260510082140 | 16 | 329 | 3.2 | 9.7 | 0.00 | 0.00 | 0.00 | 62 | 1015.5 |
| 20260510081635 | 16 | 158 | 0.0 | 1.6 | 0.00 | 0.00 | 0.00 | 62 | 1014.7 |
| 20260510081132 | 16 | 156 | 0.0 | 0.0 | 0.00 | 0.00 | 0.00 | 63 | 1014.5 |
| 20260510080631 | 16 | 156 | 0.0 | 0.0 | 0.00 | 0.00 | 0.00 | 61 | 1014.5 |
| 20260510080128 | 16 | 156 | 0.0 | 0.0 | 0.00 | 0.00 | 0.00 | 61 | 1014.5 |
| 20260510075625 | 16 | 155 | 0.0 | 0.0 | 0.00 | 0.00 | 0.00 | 62 | 1014.3 |
| 20260510075122 | 16 | 155 | 0.0 | 0.0 | 0.00 | 0.00 | 0.00 | 60 | 1014.1 |
| 20260510074619 | 17 | 155 | 0.0 | 0.0 | 0.00 | 0.00 | 0.00 | 61 | 1014.3 |
| 20260510074115 | 17 | 156 | 0.0 | 0.0 | 0.00 | 0.00 | 0.00 | 60 | 1014.2 |
| 20260510073611 | 17 | 156 | 0.0 | 0.0 | 0.00 | 0.00 | 0.00 | 60 | 1014.1 |
| 20260510073108 | 17 | 123 | 0.0 | 0.0 | 0.00 | 0.00 | 0.00 | 59 | 1014.1 |
| 20260510072605 | 17 | 123 | 0.0 | 0.0 | 0.00 | 0.00 | 0.00 | 59 | 1014.3 |
| 20260510072101 | 17 | 124 | 0.0 | 0.0 | 0.00 | 0.00 | 0.00 | 59 | 1014.1 |
| 20260510071557 | 17 | 100 | 0.0 | 0.0 | 0.00 | 0.00 | 0.00 | 57 | 1014.2 |
| 20260510071055 | 17 | 103 | 0.0 | 1.6 | 0.00 | 0.00 | 0.00 | 58 | 1014.3 |
| 20260510070551 | 17 | 112 | 0.0 | 0.0 | 0.00 | 0.00 | 0.00 | 58 | 1014.5 |
| 20260510070049 | 17 | 191 | 1.6 | 6.4 | 0.00 | 0.00 | 0.00 | 58 | 1014.4 |
| 20260510065545 | 17 | 148 | 0.0 | 1.6 | 0.00 | 0.00 | 0.00 | 59 | 1014.5 |
| 20260510065041 | 17 | 150 | 0.0 | 1.6 | 0.00 | 0.00 | 0.00 | 59 | 1014.4 |
| 20260510064537 | 17 | 150 | 0.0 | 0.0 | 0.00 | 0.00 | 0.00 | 58 | 1014.5 |
| 20260510064034 | 17 | 147 | 0.0 | 0.0 | 0.00 | 0.00 | 0.00 | 58 | 1014.4 |
| 20260510063531 | 17 | 145 | 0.0 | 0.0 | 0.00 | 0.00 | 0.00 | 59 | 1014.2 |
| 20260510063028 | 17 | 144 | 0.0 | 0.0 | 0.00 | 0.00 | 0.00 | 58 | 1014.3 |
| 20260510062524 | 17 | 145 | 0.0 | 0.0 | 0.00 | 0.00 | 0.00 | 57 | 1014.0 |
| 20260510062019 | 18 | 144 | 0.0 | 0.0 | 0.00 | 0.00 | 0.00 | 56 | 1014.0 |
| 20260510061516 | 18 | 144 | 0.0 | 0.0 | 0.00 | 0.00 | 0.00 | 57 | 1014.0 |
| 20260510061013 | 18 | 144 | 0.0 | 0.0 | 0.00 | 0.00 | 0.00 | 56 | 1014.0 |
| 20260510060509 | 18 | 144 | 0.0 | 0.0 | 0.00 | 0.00 | 0.00 | 57 | 1013.9 |
| 20260510060006 | 18 | 145 | 0.0 | 0.0 | 0.00 | 0.00 | 0.00 | 56 | 1014.0 |
| 20260510055501 | 18 | 145 | 0.0 | 0.0 | 0.00 | 0.00 | 0.00 | 55 | 1014.1 |
| 20260510055000 | 18 | 145 | 0.0 | 0.0 | 0.00 | 0.00 | 0.00 | 55 | 1014.1 |
| 20260510054455 | 18 | 144 | 0.0 | 0.0 | 0.00 | 0.00 | 0.00 | 56 | 1013.9 |
| 20260510053950 | 18 | 144 | 0.0 | 0.0 | 0.00 | 0.00 | 0.00 | 56 | 1014.0 |
| 20260510053445 | 18 | 144 | 0.0 | 0.0 | 0.00 | 0.00 | 0.00 | 57 | 1013.9 |
| 20260510052942 | 18 | 144 | 0.0 | 0.0 | 0.00 | 0.00 | 0.00 | 56 | 1013.9 |
| 20260510052438 | 18 | 144 | 0.0 | 1.6 | 0.00 | 0.00 | 0.00 | 55 | 1014.0 |
| 20260510051934 | 18 | 144 | 0.0 | 0.0 | 0.00 | 0.00 | 0.00 | 56 | 1013.9 |
| 20260510051431 | 18 | 144 | 0.0 | 1.6 | 0.00 | 0.00 | 0.00 | 56 | 1013.9 |
| 20260510050927 | 18 | 144 | 0.0 | 0.0 | 0.00 | 0.00 | 0.00 | 55 | 1014.0 |
| 20260510050424 | 18 | 144 | 1.6 | 1.6 | 0.00 | 0.00 | 0.00 | 55 | 1013.7 |
| 20260510045921 | 18 | 144 | 0.0 | 0.0 | 0.00 | 0.10 | 0.10 | 56 | 1013.9 |
| 20260510045419 | 18 | 144 | 0.0 | 0.0 | 0.00 | 0.10 | 0.10 | 55 | 1014.0 |
| 20260510044915 | 18 | 144 | 0.0 | 0.0 | 0.00 | 0.10 | 0.10 | 55 | 1013.9 |
| 20260510044412 | 18 | 144 | 0.0 | 0.0 | 0.00 | 0.10 | 0.10 | 55 | 1013.7 |
| 20260510043909 | 18 | 144 | 0.0 | 0.0 | 0.00 | 0.10 | 0.10 | 56 | 1014.0 |
| 20260510043404 | 18 | 144 | 0.0 | 0.0 | 0.00 | 0.10 | 0.10 | 55 | 1013.9 |
| 20260510042903 | 18 | 144 | 0.0 | 0.0 | 0.00 | 0.10 | 0.10 | 55 | 1013.7 |
| 20260510042359 | 18 | 177 | 0.0 | 1.6 | 0.00 | 0.10 | 0.10 | 55 | 1013.6 |
| 20260510041854 | 18 | 179 | 1.6 | 1.6 | 0.00 | 0.10 | 0.10 | 55 | 1013.8 |
| 20260510041352 | 18 | 179 | 0.0 | 0.0 | 0.00 | 0.10 | 0.10 | 56 | 1013.8 |
| 20260510040849 | 18 | 179 | 0.0 | 0.0 | 0.00 | 0.10 | 0.10 | 56 | 1013.6 |
| 20260510040346 | 18 | 180 | 0.0 | 0.0 | 0.00 | 0.10 | 0.10 | 55 | 1013.8 |
| 20260510035841 | 18 | 179 | 0.0 | 0.0 | 0.00 | 0.10 | 0.10 | 54 | 1013.8 |
| 20260510035337 | 18 | 166 | 0.0 | 1.6 | 0.00 | 0.10 | 0.10 | 54 | 1013.5 |
| 20260510034833 | 18 | 178 | 0.0 | 0.0 | 0.00 | 0.10 | 0.10 | 54 | 1013.7 |
| 20260510034332 | 18 | 248 | 0.0 | 1.6 | 0.00 | 0.10 | 0.10 | 55 | 1013.5 |
| 20260510033828 | 18 | 138 | 0.0 | 0.0 | 0.00 | 0.10 | 0.10 | 56 | 1013.7 |
| 20260510033324 | 18 | 139 | 0.0 | 0.0 | 0.00 | 0.10 | 0.10 | 55 | 1013.6 |
| 20260510032821 | 18 | 138 | 0.0 | 0.0 | 0.00 | 0.10 | 0.10 | 55 | 1013.8 |
| 20260510032318 | 18 | 131 | 0.0 | 0.0 | 0.00 | 0.10 | 0.10 | 56 | 1013.7 |
| 20260510031813 | 18 | 120 | 0.0 | 0.0 | 0.00 | 0.10 | 0.10 | 55 | 1013.9 |
| 20260510031309 | 18 | 120 | 1.6 | 1.6 | 0.00 | 0.10 | 0.10 | 54 | 1013.7 |
| 20260510030803 | 18 | 120 | 1.6 | 1.6 | 0.00 | 0.10 | 0.10 | 54 | 1013.7 |
| 20260510030300 | 18 | 120 | 0.0 | 0.0 | 0.00 | 0.10 | 0.10 | 54 | 1013.5 |
| 20260510025757 | 18 | 120 | 1.6 | 1.6 | 0.00 | 0.10 | 0.10 | 53 | 1013.5 |
| 20260510025255 | 19 | 118 | 0.0 | 0.0 | 0.00 | 0.10 | 0.10 | 53 | 1013.6 |
| 20260510024751 | 19 | 117 | 0.0 | 0.0 | 0.00 | 0.10 | 0.10 | 54 | 1013.4 |
| 20260510024248 | 19 | 117 | 0.0 | 0.0 | 0.00 | 0.10 | 0.10 | 52 | 1013.5 |
| 20260510023744 | 19 | 117 | 0.0 | 0.0 | 0.00 | 0.10 | 0.10 | 53 | 1013.6 |
| 20260510023241 | 19 | 117 | 0.0 | 0.0 | 0.00 | 0.10 | 0.10 | 53 | 1013.4 |
| 20260510022737 | 20 | 117 | 0.0 | 0.0 | 0.00 | 0.10 | 0.10 | 54 | 1013.4 |
| 20260510022237 | 20 | 118 | 0.0 | 1.6 | 0.00 | 0.10 | 0.10 | 53 | 1013.3 |
| 20260510021732 | 20 | 172 | 0.0 | 0.0 | 0.00 | 0.10 | 0.10 | 54 | 1013.3 |
| 20260510021230 | 20 | 172 | 0.0 | 0.0 | 0.00 | 0.10 | 0.10 | 53 | 1013.3 |
| 20260510020730 | 20 | 172 | 0.0 | 0.0 | 0.00 | 0.10 | 0.10 | 52 | 1013.1 |
| 20260510020226 | 20 | 173 | 0.0 | 0.0 | 0.00 | 0.10 | 0.10 | 54 | 1013.2 |
| 20260510015722 | 20 | 172 | 0.0 | 0.0 | 0.00 | 0.10 | 0.10 | 53 | 1013.0 |
| 20260510015218 | 20 | 172 | 0.0 | 0.0 | 0.00 | 0.10 | 0.10 | 52 | 1013.1 |
| 20260510014713 | 20 | 172 | 0.0 | 0.0 | 0.00 | 0.10 | 0.10 | 53 | 1013.0 |
| 20260510014211 | 20 | 172 | 0.0 | 0.0 | 0.00 | 0.10 | 0.10 | 52 | 1013.0 |
| 20260510013712 | 20 | 172 | 0.0 | 0.0 | 0.00 | 0.10 | 0.10 | 54 | 1012.9 |
| 20260510013208 | 20 | 173 | 0.0 | 0.0 | 0.00 | 0.10 | 0.10 | 54 | 1012.7 |
| 20260510012708 | 20 | 172 | 0.0 | 0.0 | 0.00 | 0.10 | 0.10 | 51 | 1012.8 |
| 20260510012203 | 20 | 172 | 0.0 | 0.0 | 0.00 | 0.10 | 0.10 | 52 | 1012.6 |
| 20260510011658 | 20 | 173 | 0.0 | 0.0 | 0.00 | 0.10 | 0.10 | 51 | 1012.5 |
| 20260510011154 | 21 | 173 | 0.0 | 0.0 | 0.00 | 0.10 | 0.10 | 52 | 1012.6 |
| 20260510010650 | 21 | 173 | 0.0 | 0.0 | 0.00 | 0.10 | 0.10 | 52 | 1012.6 |
| 20260510010148 | 21 | 173 | 0.0 | 0.0 | 0.00 | 0.10 | 0.10 | 51 | 1012.5 |
| 20260510005643 | 21 | 173 | 0.0 | 0.0 | 0.00 | 0.10 | 0.10 | 48 | 1012.4 |
| 20260510005141 | 22 | 173 | 0.0 | 0.0 | 0.00 | 0.10 | 0.10 | 48 | 1012.4 |
| 20260510004639 | 22 | 173 | 0.0 | 0.0 | 0.00 | 0.10 | 0.10 | 47 | 1012.3 |
| 20260510004137 | 22 | 173 | 0.0 | 0.0 | 0.00 | 0.10 | 0.10 | 46 | 1012.1 |
| 20260510003633 | 23 | 173 | 0.0 | 0.0 | 0.00 | 0.10 | 0.10 | 43 | 1012.2 |
| 20260510003129 | 23 | 174 | 0.0 | 0.0 | 0.00 | 0.10 | 0.10 | 44 | 1011.9 |
| 20260510002629 | 23 | 176 | 0.0 | 0.0 | 0.00 | 0.10 | 0.10 | 43 | 1012.0 |
| 20260510002127 | 23 | 176 | 0.0 | 0.0 | 0.00 | 0.10 | 0.10 | 42 | 1011.9 |
| 20260510001623 | 24 | 176 | 0.0 | 0.0 | 0.00 | 0.10 | 0.10 | 40 | 1011.8 |
| 20260510001122 | 25 | 176 | 0.0 | 0.0 | 0.00 | 0.10 | 0.10 | 39 | 1011.6 |
| 20260510000622 | 25 | 176 | 0.0 | 0.0 | 0.00 | 0.10 | 0.10 | 39 | 1011.9 |
| 20260510000120 | 25 | 176 | 1.6 | 1.6 | 0.00 | 0.10 | 0.10 | 37 | 1011.9 |
| 20260509235616 | 26 | 217 | 1.6 | 1.6 | 0.00 | 0.10 | 0.10 | 35 | 1011.7 |
| 20260509235113 | 26 | 146 | 1.6 | 1.6 | 0.00 | 0.10 | 0.10 | 35 | 1011.6 |
| 20260509234608 | 26 | 243 | 1.6 | 1.6 | 0.00 | 0.10 | 0.10 | 34 | 1011.6 |
| 20260509234107 | 26 | 254 | 0.0 | 1.6 | 0.00 | 0.10 | 0.10 | 34 | 1011.8 |
| 20260509233604 | 26 | 203 | 1.6 | 3.2 | 0.00 | 0.10 | 0.10 | 33 | 1011.6 |
| 20260509233101 | 26 | 156 | 1.6 | 1.6 | 0.00 | 0.10 | 0.10 | 33 | 1011.6 |
| 20260509232557 | 26 | 136 | 3.2 | 3.2 | 0.00 | 0.10 | 0.10 | 33 | 1011.6 |
| 20260509232054 | 27 | 24 | 0.0 | 1.6 | 0.00 | 0.10 | 0.10 | 34 | 1011.8 |
| 20260509231551 | 27 | 135 | 0.0 | 3.2 | 0.00 | 0.10 | 0.10 | 33 | 1011.5 |
| 20260509231049 | 27 | 298 | 0.0 | 1.6 | 0.00 | 0.10 | 0.10 | 32 | 1011.7 |
| 20260509230545 | 27 | 334 | 1.6 | 3.2 | 0.00 | 0.10 | 0.10 | 30 | 1011.6 |
| 20260509230043 | 27 | 292 | 1.6 | 4.8 | 0.00 | 0.10 | 0.10 | 30 | 1011.8 |
| 20260509225537 | 27 | 328 | 3.2 | 3.2 | 0.00 | 0.10 | 0.10 | 31 | 1011.7 |
| 20260509225033 | 27 | 143 | 0.0 | 3.2 | 0.00 | 0.10 | 0.10 | 31 | 1011.6 |
| 20260509224529 | 27 | 111 | 0.0 | 3.2 | 0.00 | 0.10 | 0.10 | 30 | 1011.7 |
| 20260509224026 | 27 | 267 | 1.6 | 4.8 | 0.00 | 0.10 | 0.10 | 31 | 1011.8 |
| 20260509223523 | 27 | 243 | 3.2 | 4.8 | 0.00 | 0.10 | 0.10 | 33 | 1011.8 |
| 20260509223021 | 27 | 120 | 0.0 | 3.2 | 0.00 | 0.10 | 0.10 | 31 | 1011.9 |
| 20260509222517 | 27 | 138 | 3.2 | 6.4 | 0.00 | 0.10 | 0.10 | 30 | 1011.7 |
| 20260509222012 | 27 | 305 | 0.0 | 3.2 | 0.00 | 0.10 | 0.10 | 30 | 1011.6 |
| 20260509221508 | 27 | 292 | 1.6 | 4.8 | 0.00 | 0.10 | 0.10 | 33 | 1011.7 |
| 20260509221004 | 27 | 239 | 3.2 | 9.7 | 0.00 | 0.10 | 0.10 | 30 | 1011.6 |
| 20260509220501 | 26 | 151 | 0.0 | 1.6 | 0.00 | 0.10 | 0.10 | 33 | 1011.7 |
| 20260509215956 | 26 | 284 | 3.2 | 4.8 | 0.00 | 0.10 | 0.10 | 31 | 1011.5 |
| 20260509215452 | 26 | 276 | 1.6 | 3.2 | 0.00 | 0.10 | 0.10 | 36 | 1011.5 |
| 20260509214950 | 26 | 284 | 0.0 | 3.2 | 0.00 | 0.10 | 0.10 | 35 | 1011.6 |